Location: Bremen
(53.0793°N, 8.8017°E)
Time: 23:02:28
(UTC+02:00)

Vanguard 2 Rocket - Pass Details

Date: 20 April 2024
Orbit: 556 x 3304 km, 32.9° (Epoch: 20 May)

Event Time Altitude Azimuth Distance (km) Brightness Sun altitude
Rises 03:00:30 0° 263° (W) 7,186 11.2 -22.1°
Reaches altitude 10° 03:06:01 10° 255° (WSW) 6,253 10.8 -21.7°
Maximum altitude 03:22:09 33° 202° (SSW) 4,332 9.7 -20.5°
Drops below altitude 10° 03:35:17 10° 147° (SSE) 5,078 10.5 -19.4°
Sets 03:39:12 0° 138° (SE) 5,726 10.9 -19.1°
